EA5ILC Weather Reports


Display with metric or nautical units.
time (UTC)temp
F
wind
direction
speed
MPH
gust
MPH
rain 1hr
in
rain 24hr
in
rain mn
in
humidity
%
barometer
mb
20260502190556 62 247 0.0 2.0 0.00 0.00 0.00 91 1018.9
20260502185613 62 65 1.0 6.0 0.00 0.00 0.00 92 1019.0
20260502184550 62 108 1.0 2.0 0.00 0.00 0.00 93 1019.2
20260502183548 62 119 2.0 4.0 0.00 0.00 0.00 93 1019.1
20260502182545 62 115 2.0 6.0 0.00 0.00 0.00 93 1019.1
20260502181543 63 128 1.0 2.0 0.00 0.00 0.00 92 1019.3
20260502180540 63 96 1.0 2.0 0.00 0.00 0.00 91 1019.3
20260502163537 65 151 2.0 4.0 0.00 0.00 0.00 86 1020.0
20260502162614 65 109 2.0 6.0 0.00 0.00 0.00 86 1020.0
20260502161612 65 155 1.0 4.0 0.00 0.00 0.00 87 1020.1
20260502160609 65 341 2.0 4.0 0.00 0.00 0.00 86 1020.4
20260502151616 67 137 2.0 4.0 0.00 0.00 0.00 82 1020.4
20260502150553 66 322 2.0 4.0 0.00 0.00 0.00 83 1020.9
20260502130522 63 358 3.0 6.0 0.00 0.01 0.00 90 1021.8
20260502123615 64 352 4.0 8.0 0.00 0.01 0.00 90 1022.1
20260502122612 64 329 2.0 6.0 0.00 0.01 0.00 90 1022.2
20260502121609 64 302 2.0 6.0 0.00 0.01 0.00 90 1022.4
20260502120627 64 335 3.0 6.0 0.00 0.01 0.00 90 1022.4
20260502115644 64 355 3.0 7.0 0.00 0.01 0.00 90 1022.3
20260502114642 64 330 3.0 7.0 0.00 0.01 0.00 90 1022.3
20260502113559 64 350 2.0 6.0 0.00 0.01 0.00 90 1022.3
20260502112557 64 357 4.0 9.0 0.00 0.01 0.00 89 1022.4
20260502111554 64 346 3.0 7.0 0.00 0.01 0.00 89 1022.6
20260502110551 65 350 2.0 7.0 0.00 0.01 0.00 89 1022.7
20260502105548 65 304 2.0 8.0 0.00 0.01 0.00 87 1022.9
20260502104546 65 324 3.0 9.0 0.00 0.01 0.00 87 1022.9
20260502103543 65 330 3.0 7.0 0.00 0.01 0.00 86 1022.8
20260502102541 67 318 4.0 7.0 0.00 0.01 0.00 84 1022.8
20260502101538 67 11 3.0 11.0 0.00 0.01 0.00 83 1022.9
20260502100536 67 346 2.0 6.0 0.00 0.01 0.00 82 1022.8
20260502090611 67 345 2.0 7.0 0.00 0.01 0.00 79 1023.2
20260502071521 64 234 1.0 2.0 0.00 0.11 0.00 81 1023.3
20260502070539 64 270 0.0 2.0 0.00 0.11 0.00 81 1023.2
20260502065516 64 321 0.0 2.0 0.00 0.11 0.00 81 1023.2
20260502064634 64 90 0.0 2.0 0.00 0.11 0.00 81 1023.1
20260502063611 64 0.0 0.0 0.00 0.11 0.00 80 1023.2
20260502062608 63 0.0 0.0 0.00 0.11 0.00 83 1023.3
20260502061606 62 0.0 0.0 0.00 0.11 0.00 85 1023.2
20260502060604 62 0 1.0 2.0 0.00 0.11 0.00 85 1023.3
20260502055601 62 338 0.0 2.0 0.00 0.11 0.00 83 1023.2
20260502054558 62 0.0 0.0 0.00 0.11 0.00 83 1023.2
20260502053555 62 0.0 2.0 0.00 0.11 0.00 83 1023.2
20260502052553 62 0.0 2.0 0.00 0.11 0.00 83 1023.0
20260502051550 62 0.0 0.0 0.00 0.11 0.00 83 1022.8
20260502050548 62 338 0.0 2.0 0.00 0.11 0.00 82 1022.7
20260502045545 62 23 0.0 2.0 0.00 0.11 0.00 83 1022.7
20260502044543 62 0.0 0.0 0.00 0.11 0.00 83 1022.7
20260502043540 62 0.0 2.0 0.00 0.11 0.00 83 1022.8
20260502042537 62 0.0 2.0 0.00 0.11 0.00 83 1022.8
20260502041535 61 138 0.0 2.0 0.00 0.11 0.00 85 1022.9
20260502040532 61 0.0 2.0 0.00 0.11 0.00 88 1022.9
20260502035530 61 34 1.0 4.0 0.00 0.11 0.00 89 1023.0
20260502034527 61 12 2.0 6.0 0.00 0.11 0.00 89 1023.2
20260502033524 61 4 1.0 4.0 0.00 0.11 0.00 89 1023.4
20260502032521 61 353 1.0 4.0 0.00 0.11 0.00 87 1023.2
20260502031519 61 3 1.0 2.0 0.00 0.11 0.00 87 1023.2
20260502030517 61 45 0.0 2.0 0.00 0.11 0.00 88 1023.4
20260502025614 61 38 0.0 4.0 0.00 0.11 0.00 91 1023.3
20260502024611 61 22 0.0 2.0 0.00 0.11 0.00 91 1023.1
20260502023609 61 45 0.0 2.0 0.00 0.11 0.00 90 1023.1
20260502022607 61 0.0 2.0 0.00 0.11 0.00 90 1023.2
20260502021624 61 297 0.0 2.0 0.00 0.11 0.00 91 1023.3
20260502020601 61 68 0.0 2.0 0.00 0.11 0.00 90 1023.4
20260502015558 60 90 0.0 4.0 0.00 0.11 0.00 91 1023.4
20260502014556 60 101 0.0 2.0 0.00 0.11 0.00 94 1023.5
20260502013553 60 0.0 0.0 0.00 0.11 0.00 95 1023.4
20260502012550 59 0.0 0.0 0.00 0.11 0.00 96 1023.6
20260502011548 59 0.0 0.0 0.00 0.11 0.00 96 1023.7
20260502010546 59 0.0 0.0 0.00 0.11 0.00 96 1023.8
20260502005543 59 0.0 0.0 0.00 0.13 0.00 96 1023.9
20260502004540 59 0.0 0.0 0.00 0.13 0.00 95 1024.0
20260502003558 59 0.0 0.0 0.00 0.13 0.00 95 1024.0
20260502002535 60 0.0 0.0 0.00 0.13 0.00 95 1024.3
20260502001532 60 0.0 0.0 0.00 0.13 0.00 95 1024.2
20260502000550 60 0.0 0.0 0.00 0.13 0.00 95 1024.5
20260501235527 60 0.0 0.0 0.00 0.13 0.00 95 1024.5
20260501234525 60 135 0.0 2.0 0.00 0.13 0.00 95 1024.5
20260501233542 60 135 0.0 2.0 0.00 0.13 0.00 95 1024.5
20260501232519 60 105 1.0 2.0 0.00 0.13 0.00 96 1024.5
20260501231517 60 113 1.0 2.0 0.00 0.13 0.00 96 1024.5
20260501230614 60 0.0 0.0 0.00 0.13 0.00 96 1024.6
20260501225612 60 0.0 0.0 0.00 0.13 0.00 96 1024.6
20260501224629 60 0.0 0.0 0.00 0.13 0.00 96 1024.5
20260501223606 60 0.0 0.0 0.00 0.13 0.00 96 1024.6
20260501222604 60 0.0 0.0 0.00 0.13 0.00 96 1024.6
20260501221641 60 0.0 0.0 0.00 0.13 0.00 96 1024.6
20260501220558 60 0.0 0.0 0.00 0.13 0.00 96 1024.6
20260501215556 60 0.0 0.0 0.00 0.13 0.13 96 1024.7
20260501214553 60 0.0 0.0 0.00 0.13 0.13 96 1024.8
20260501213611 61 0.0 0.0 0.00 0.13 0.13 96 1024.8
20260501212608 61 0.0 0.0 0.00 0.13 0.13 96 1024.8
20260501211545 61 0.0 0.0 0.00 0.13 0.13 96 1024.7
20260501210543 61 0.0 0.0 0.00 0.13 0.13 96 1024.8
20260501205600 61 23 1.0 2.0 0.00 0.13 0.13 95 1024.8
20260501204537 61 23 0.0 2.0 0.00 0.13 0.13 95 1024.8
20260501203535 61 23 1.0 2.0 0.00 0.13 0.13 95 1024.7
20260501202532 61 23 1.0 2.0 0.00 0.13 0.13 94 1024.7
20260501201550 62 9 1.0 2.0 0.00 0.13 0.13 94 1024.5
20260501200527 62 353 0.0 2.0 0.00 0.13 0.13 93 1024.5
20260501195524 62 16 1.0 2.0 0.00 0.13 0.13 93 1024.2
20260501194522 63 9 1.0 2.0 0.00 0.13 0.13 92 1024.1
20260501193519 63 338 1.0 2.0 0.00 0.13 0.13 92 1024.1
20260501192517 64 261 1.0 2.0 0.00 0.13 0.13 92 1023.9
20260501191655 64 253 0.0 2.0 0.00 0.13 0.13 92 1023.6